CST,Max TemperatureF,Mean TemperatureF,Min TemperatureF,Max Dew PointF,MeanDew PointF,Min DewpointF,Max Humidity, Mean Humidity, Min Humidity, Max Sea Level PressureIn, Mean Sea Level PressureIn, Min Sea Level PressureIn, Max VisibilityMiles, Mean VisibilityMiles, Min VisibilityMiles, Max Wind SpeedMPH, Mean Wind SpeedMPH, Max Gust SpeedMPH,PrecipitationIn, CloudCover, Events, WindDirDegrees
2013-2-1,23,8,-8,16,-3,-12,83,72,61,30.45,30.30,30.06,10,10,10,17,9,23,0.00,4,,216
2013-2-2,33,23,13,27,15,5,92,77,62,30.22,30.09,29.96,10,8,1,24,12,32,0.04,7,Snow,266
2013-2-3,33,24,14,25,17,10,88,73,58,30.20,30.05,29.81,10,8,1,31,11,39,0.02,4,Snow,284
2013-2-4,26,20,14,21,16,13,92,80,68,30.05,29.95,29.79,10,9,5,23,8,26,0.00,6,,5
2013-2-5,40,30,20,32,26,18,92,81,70,30.13,29.95,29.82,10,9,5,25,8,32,0.00,4,,304
2013-2-6,40,31,21,34,27,19,96,86,76,30.14,30.04,29.94,10,8,4,16,5,22,0.00,2,,137
2013-2-7,36,32,27,34,29,23,100,91,82,30.23,30.02,29.91,10,4,2,24,11,29,0.12,8,Rain,340
2013-2-8,28,26,24,24,22,21,92,85,78,30.39,30.32,30.25,10,10,7,18,8,23,0.00,8,,107
2013-2-9,34,30,26,31,27,23,92,87,82,30.28,30.08,29.87,10,6,4,20,14,25,0.06,7,,143
2013-2-10,47,39,31,39,32,25,100,88,76,29.84,29.50,29.26,10,5,1,38,20,48,0.16,8,Rain,154
2013-2-11,31,29,26,25,21,19,81,75,69,30.15,29.97,29.60,10,10,9,36,22,45,0.00,8,,291
2013-2-12,44,33,21,31,25,19,92,73,53,30.16,30.02,29.88,10,10,5,20,9,23,0.00,1,,244
2013-2-13,48,36,24,34,29,22,92,74,56,29.87,29.78,29.68,10,10,10,16,9,18,0.00,2,,259
2013-2-14,39,31,22,31,27,13,82,71,60,30.21,29.94,29.71,10,9,2,28,16,38,T,5,Snow,308
2013-2-15,28,22,15,14,11,6,80,68,55,30.36,30.32,30.22,10,10,10,20,12,28,0.00,1,,328
2013-2-16,32,21,10,19,14,8,92,71,49,30.33,30.21,30.13,10,10,10,12,5,15,0.00,1,,238
2013-2-17,44,31,18,25,21,15,91,70,49,30.12,29.94,29.66,10,10,10,22,12,28,0.00,0,,137
2013-2-18,40,27,14,32,21,7,92,80,67,29.91,29.72,29.58,10,8,1,32,15,46,T,4,Snow,309
2013-2-19,20,12,3,6,2,-4,79,64,49,30.43,30.18,29.97,10,10,6,32,19,43,T,3,Snow,316
2013-2-20,24,12,0,11,1,-7,79,62,44,30.49,30.42,30.35,10,10,10,14,7,18,0.00,1,,39
2013-2-21,26,21,16,21,18,10,92,76,59,30.36,30.02,29.85,10,4,0,23,13,31,0.15,6,Fog-Snow,64
2013-2-22,27,24,21,22,20,16,100,87,74,30.01,29.87,29.77,10,5,0,21,10,26,0.13,7,Fog-Snow,329
2013-2-23,28,17,5,18,13,4,92,80,68,30.00,29.97,29.94,10,9,4,14,6,17,0.00,1,,230
2013-2-24,36,21,6,27,18,6,100,83,66,30.10,30.04,29.93,6,5,2,7,2,8,0.00,2,,117
2013-2-25,39,32,24,28,26,23,92,78,64,30.11,30.05,29.94,8,4,2,10,4,14,0.00,4,,45
2013-2-26,32,30,28,29,27,24,92,85,78,29.92,29.79,29.73,6,2,0,22,15,28,0.12,7,Fog-Snow,7
2013-2-27,30,27,24,27,24,19,92,82,72,30.00,29.84,29.78,10,4,0,25,17,32,0.01,8,Fog-Snow,334
2013-2-28,31,26,20,25,21,17,88,79,69,30.20,30.13,30.00,10,9,7,22,14,28,0.00,8,,332